Home   Weather   Izmir   Past weeks

Flag for Turkey Past Weather in Izmir, Turkey — Yesterday and Last 2 Weeks

Now
55 °F

Broken clouds.


Feels Like: 52 °F
Forecast: 49 / 69 °F
Wind: 14 mph from North

Location: Izmir / Adnan Menderes

Current Time: Feb 27, 2017 at 2:12:25 pm

Latest Report: Feb 27, 2017 at 1:50 pm


Visibility: N/A

Pressure: 30.04 "Hg

Humidity: 77%

Dew Point: 48 °F

Location of IzmirLocation

Past Weather in Izmir — Graph

°F

Izmir Temperature Yesterday

Maximum temperature yesterday: 66 °F (at 12:50 pm)
Minimum temperature yesterday: 46 °F (at 7:50 am)
Average temperature yesterday: 56 °F

High & Low Weather Summary for the Past Weeks

 TemperatureHumidityPressure
High66 °F (Feb 26, 12:50 pm)100% (Feb 21, 6:20 am)30.42 "Hg (Feb 21, 6:20 am)
Low27 °F (Feb 18, 6:50 am)27% (Feb 15, 12:50 pm)29.98 "Hg (Feb 21, 5:20 pm)
Average47 °F68%30.20 "Hg
* Reported Feb 12 12:20 pm — Feb 27 12:50 pm, Izmir, Weather by CustomWeather, © 2017

Note: Actual official high and low records may vary slightly from our data, if they occured in-between our weather recording intervals... More about our weather records

Advertising

Izmir Weather History for the Previous 24 Hours

Scroll right to see more
 ConditionsComfort  
Time TempWeatherWind HumidityBarometerVisibility
12:50 pm
Mon, Feb 27
57 °FBroken clouds.12 mph72%30.07 "HgN/A
12:20 pm57 °FBroken clouds.12 mph72%30.07 "HgN/A
11:50 am57 °FBroken clouds.14 mph72%30.07 "HgN/A
10:50 am55 °FBroken clouds.14 mph82%30.07 "Hg4 mi
10:20 am55 °FBroken clouds.14 mph82%30.07 "Hg4 mi
9:50 am54 °FBroken clouds.14 mph88%30.07 "Hg4 mi
9:20 am54 °FBroken clouds.7 mph88%30.07 "Hg4 mi
8:50 am52 °FBroken clouds.6 mph88%30.07 "Hg4 mi
8:20 am52 °FBroken clouds.2 mph94%30.07 "Hg4 mi
7:50 am52 °FBroken clouds.1 mph88%30.07 "HgN/A
7:20 am52 °FPartly cloudy.2 mph88%30.07 "HgN/A
6:50 am52 °FPartly cloudy.3 mph88%30.07 "HgN/A
6:20 am50 °FPartly cloudy.1 mph94%30.07 "HgN/A
5:50 am50 °FPartly cloudy.2 mph94%30.07 "HgN/A
5:20 am50 °FPartly cloudy.No wind94%30.07 "HgN/A
4:50 am50 °FPartly cloudy.1 mph94%30.07 "HgN/A
3:50 am50 °FPartly cloudy.No wind94%30.07 "HgN/A
3:20 am52 °FPartly cloudy.6 mph94%30.09 "HgN/A
2:50 am52 °FPartly cloudy.2 mph94%30.09 "HgN/A
2:20 am52 °FPartly cloudy.2 mph88%30.09 "HgN/A
1:50 am54 °FPartly cloudy.3 mph88%30.09 "HgN/A
1:20 am52 °FPartly cloudy.6 mph94%30.09 "HgN/A
12:50 am54 °FPartly cloudy.5 mph88%30.09 "HgN/A
12:20 am54 °FPartly cloudy.5 mph88%30.09 "HgN/A
11:50 pm
Sun, Feb 26
54 °FPartly cloudy.1 mph82%30.12 "HgN/A
11:20 pm54 °FPartly cloudy.2 mph82%30.12 "HgN/A
10:50 pm54 °FPartly cloudy.3 mph82%30.12 "HgN/A
10:20 pm55 °FPartly cloudy.9 mph82%30.09 "HgN/A
9:50 pm57 °FPartly cloudy.10 mph77%30.09 "HgN/A
9:20 pm57 °FPartly cloudy.12 mph77%30.09 "HgN/A
8:50 pm57 °FPartly cloudy.9 mph77%30.12 "HgN/A
8:20 pm59 °FPartly cloudy.9 mph68%30.12 "HgN/A
7:50 pm59 °FPartly cloudy.12 mph68%30.12 "HgN/A
7:20 pm61 °FPartly cloudy.13 mph63%30.12 "HgN/A
6:50 pm61 °FBroken clouds.13 mph63%30.09 "HgN/A
6:20 pm63 °FBroken clouds.13 mph64%30.12 "HgN/A
5:50 pm63 °FBroken clouds.13 mph64%30.09 "HgN/A
5:20 pm64 °FBroken clouds.16 mph60%30.09 "HgN/A
4:50 pm64 °FBroken clouds.15 mph56%30.12 "HgN/A
4:20 pm66 °FBroken clouds.12 mph52%30.12 "HgN/A
3:50 pm66 °FBroken clouds.12 mph49%30.12 "HgN/A
3:20 pm66 °FBroken clouds.9 mph49%30.12 "HgN/A
2:50 pm66 °FPartly sunny.9 mph49%30.12 "HgN/A
2:20 pm66 °FScattered clouds.10 mph49%30.15 "HgN/A
Weather by CustomWeather, © 2017

See weather overviewHow to use our weather pages